Location: Plum
(40.5000°N, 79.7500°W)
Time: 15:37:40

MOZ.5/SAFIR/RUBIN 5/SL-8 - Visible Passes

Search period start: 22 October 2016 00:00
Search period end: 01 November 2016 00:00
Orbit: 679 x 706 km, 97.9° (Epoch: 22 October)

Date Brightness Start Highest point End Pass type
(mag) Time Alt. Az. Time Alt. Az. Time Alt. Az.
24 Oct 6.6 19:02:56 10° NNW 19:05:27 15° WNW 19:07:57 10° W visible
29 Oct 6.7 19:06:49 10° NW 19:08:57 13° WNW 19:11:06 10° W visible
31 Oct 6.4 18:47:47 10° NNW 18:51:05 19° WNW 18:54:21 10° WSW visible
